CZ-6A DEB, 54630

Orbit data source: Space-Track

CZ-6A DEB, 54630 is space debris in SSO originally from a launch on Fri, 11 Nov 2022 UTC launched from the Taiyaun Space Center, China (TSC). Debris objects in space refer to the collection of defunct objects orbiting the Earth. Examples of debris include non-operational satellites, rocket bodies, and fragments generated from explosions, collisions, or faulty payload assembly.

Loading next visibility...
Identifier
54630, 2022-151PG
Orbit
SSO
Country
Flag of CNCN / PRC
Related business
Manufacturer
SAST
Mission
Spacecraft
Bus & Motor
Unknown
Mass
Unknown
Launch date (UTC)
2022-11-11 (4 years ago)
Launch vehicle
Unknown
Launch site
Taiyaun Space Center, China (TSC)
Object type
Payload
Rocket body
Debris
Shape & HBR
Unknown shape, 0.1 m
Radar Cross Section
Medium (>0.1 m² and <1 m²)

Expand to show TLE details & history
Last TLE update: 22 hours ago

TLE from 22 hours ago
0 CZ-6A DEB
1 54630U 22151PG  26206.17080839  .00019733  00000-0  25474-2 0  9998
2 54630  98.6275 280.1219 0062214 149.3320 211.1549 14.79643928195064
Epoch: 2026-07-25T04:05Z
TLE epoch observation values (Epoch: 2026-07-25T04:05:57.844Z)
Latitude
-0.00011°
Longitude
-84.25603°
Altitude
670.841 km
Speed
7.501 km/s
True Right ascension
18h 40m 29s
True Declination
0° 00' 00"
Sunlit
Object was in full shadow at epoch
Visualization orbit readout
Latitude
Unknown
Longitude
Unknown
Altitude
Unknown
Speed
Unknown
Apparent Right ascension
Unknown
Apparent Declination
Unknown
Sunlit
N/A
Visualization observer readout
Local Sidereal Time
15:11:08
Azimuth
Unknown
Elevation
Unknown
Doppler factor
Unknown
Orbital elements
Apogee altitude
671.109 km
Perigee altitude
583.938 km
Semi-major axis
7,005.66 km
Eccentricity
0.00622
Inclination
98.6275°
RAAN
280.1219°
Arg. of periapsis
149.332°
True anomaly
210.78851°
Mean anomaly
211.1549°
Eccentric anomaly
210.97146°
Mean motion
3.70143 °/min
Orbital period
97.26 mins
BSTAR
0.0025474
Loading maneuver chart data...
Computing Atmospheric mass density...
Loading historical data...
Loading historical data...
Loading historical data...
Loading historical data...
Loading historical data...
Loading historical data...
Loading historical data...

Documentation

Showing up to 5 results
|